This demonstration page uses our WeatherBlox Daily Observations layout. Learn more.

Left ArrowRight Arrow

44.89941, -97.11507

Hourly Observations for June 13, 2018

Temp ( °F °C ) Dew Point ( °F °C ) Humidity (%) Winds ( mph kmh ) Pressure ( in mb ) Visibility ( mi km ) Precip ( " mm )
12:53 am 00:53 Clear 57 13.9 47 8.3 69 69 Calm 30.02 1017 10 16 0.00 0.00
1:53 am 01:53 Clear 54 12.2 48 8.9 80 80 Calm 30.03 1017 10 16 0.00 0.00
2:53 am 02:53 Clear 51 10.6 47 8.3 86 86 Calm 30.03 1017 10 16 0.00 0.00
3:53 am 03:53 Clear 50 10 47 8.3 89 89 Calm 30.03 1017 10 16 0.00 0.00
4:53 am 04:53 Clear 50 10 48 8.9 93 93 SSE 3 6 30.03 1017 10 16 0.00 0.00
5:53 am 05:53 Sunny 50 10 48 8.9 93 93 Calm 30.04 1017 10 16 0.00 0.00
6:53 am 06:53 Sunny 53 11.7 50 10 89 89 Calm 30.05 1018 10 16 0.00 0.00
7:53 am 07:53 Sunny 59 15 50 10 72 72 SSW 7 11 30.05 1018 10 16 0.00 0.00
8:53 am 08:53 Sunny 65 18.3 47 8.3 52 52 SSW 9 15 30.05 1018 10 16 0.00 0.00
9:53 am 09:53 Sunny 68 20 46 7.8 45 45 SW 12 19 30.05 1018 10 16 0.00 0.00
10:53 am 10:53 Sunny 72 22.2 43 6.1 35 35 W 9 15 30.03 1017 10 16 0.00 0.00
11:53 am 11:53 Sunny 73 22.8 42 5.6 33 33 SSW 8 13 30.02 1017 10 16 0.00 0.00
12:53 pm 12:53 Sunny 76 24.4 40 4.4 27 27 SSW 9 15 30.00 1016 10 16 0.00 0.00
1:53 pm 13:53 Sunny 76 24.4 44 6.7 32 32 S 14 22 30.00 1016 10 16 0.00 0.00
2:53 pm 14:53 Cloudy 73 22.8 46 7.8 38 38 SSW 13 20 30.01 1016 10 16 0.00 0.00
3:53 pm 15:53 Sunny 73 22.8 47 8.3 40 40 SSW 9 15 29.97 1015 10 16 0.00 0.00
4:53 pm 16:53 Cloudy with Rain 63 17.2 56 13.3 78 78 SSW 12 19 30.01 1016 5 8 0.03 0.76
5:53 pm 17:53 Cloudy 64 17.8 60 15.6 87 87 ESE 3 6 29.97 1015 10 16 0.03 0.76
6:53 pm 18:53 Cloudy 67 19.4 56 13.3 68 68 S 8 13 29.93 1014 10 16 0.00 0.00
7:53 pm 19:53 Cloudy 67 19.4 54 12.2 63 63 S 7 11 29.92 1013 10 16 0.00 0.00
8:53 pm 20:53 Cloudy 65 18.3 55 12.8 70 70 S 9 15 29.93 1013 10 16 0.00 0.00
9:53 pm 21:53 Cloudy 64 17.8 53 11.7 68 68 SSE 10 17 29.92 1013 10 16 0.00 0.00
10:53 pm 22:53 Cloudy 62 16.7 55 12.8 78 78 S 10 17 29.94 1014 10 16 0.00 0.00
11:53 pm 23:53 Mostly Cloudy 62 16.7 54 12.2 75 75 SE 9 15 29.93 1013 10 16 0.00 0.00

Powered by AerisWeather